This is the latest recevied weather packets stored in our database for station/object K3PPP. If no packets are shown the sender has not sent any weather packets the latest 10 day(s).
| Time | Temp. | Humidity | Pressure | Rain* | Wind** | Luminosity | Snow |
|---|---|---|---|---|---|---|---|
| 1778212876 | 5.56° C | 66% | 1013.7 hPa | 0 mm | - | 0 W/m² | - |
| 1778212573 | 5.56° C | 67% | 1013.6 hPa | 0 mm | - | 0 W/m² | - |
| 1778212271 | 5.56° C | 67% | 1013.6 hPa | 0 mm | - | 0 W/m² | - |
| 1778211967 | 5.56° C | 67% | 1013.6 hPa | 0 mm | - | 0 W/m² | - |
| 1778211664 | 6.11° C | 66% | 1013.6 hPa | 0 mm | - | 0 W/m² | - |
| 1778211362 | 6.11° C | 66% | 1013.7 hPa | 0 mm | - | 0 W/m² | - |
| 1778211060 | 6.11° C | 65% | 1013.6 hPa | 0 mm | - | 0 W/m² | - |
| 1778210756 | 6.11° C | 64% | 1013.3 hPa | 0 mm | - | 0 W/m² | - |
| 1778210454 | 6.67° C | 64% | 1013.5 hPa | 0 mm | - | 0 W/m² | - |
| 1778210150 | 6.67° C | 64% | 1013.7 hPa | 0 mm | - | 0 W/m² | - |
| 1778209846 | 6.67° C | 64% | 1013.3 hPa | 0 mm | - | 0 W/m² | - |
| 1778209543 | 6.67° C | 65% | 1013.6 hPa | 0 mm | - | 0 W/m² | - |
| 1778209241 | 6.67° C | 63% | 1013.2 hPa | 0 mm | - | 0 W/m² | - |
| 1778208937 | 6.67° C | 63% | 1013.3 hPa | 0 mm | - | 0 W/m² | - |
| 1778208634 | 6.67° C | 63% | 1013.2 hPa | 0 mm | - | 0 W/m² | - |
| 1778208330 | 6.67° C | 64% | 1013.2 hPa | 0 mm | - | 0 W/m² | - |
| 1778208027 | 6.67° C | 63% | 1013.3 hPa | 0 mm | - | 0 W/m² | - |
| 1778207723 | 7.22° C | 61% | 1013.1 hPa | 0 mm | - | 0 W/m² | - |
| 1778207421 | 7.78° C | 60% | 1013.1 hPa | 0 mm | - | 0 W/m² | - |
| 1778207117 | 7.22° C | 60% | 1013.1 hPa | 0 mm | - | 0 W/m² | - |
| 1778206814 | 7.78° C | 58% | 1013.1 hPa | 0 mm | - | 0 W/m² | - |
| 1778206510 | 7.78° C | 58% | 1013.1 hPa | 0 mm | - | 0 W/m² | - |
| 1778206205 | 7.78° C | 58% | 1013 hPa | 0 mm | - | 0 W/m² | - |
| 1778205904 | 7.78° C | 56% | 1012.7 hPa | 0 mm | - | 0 W/m² | - |
| 1778205601 | 8.33° C | 54% | 1012.7 hPa | 0 mm | - | 0 W/m² | - |
* Rain latest hour (hover to see other rain measurements)
** Current wind speed in m/s (hover to see current wind gust speed)